User: anonymous   Login
Location: Caltech
(34.1382°N, 118.1253°W)
Time: 04:07:15
(UTC-08:00)
Language:

Cosmos 2219 Rocket - Orbit

View from above orbital plane
View from above orbital plane
View from above satellite
View from above satellite

Ground track
Ground track

The orbit data is extracted from the following two-line orbital elements,

1 22220U 92076B   17345.59450448 +.00000189 +00000-0 +11916-3 0  9990
2 22220 071.0011 045.8150 0012988 352.1952 113.7660 14.16423372295562
Epoch (UTC): 11 December 2017 14:16:05
Eccentricity: 0.0012988
inclination: 71.0011°
perigee height: 828 km
apogee height: 847 km
right ascension of ascending node: 45.8150°
argument of perigee: 352.1952°
revolutions per day: 14.16423372
mean anomaly at epoch: 113.7660°
orbit number at epoch: 29556

The dashed part of the orbit path shows where the satellite is in the earth's shadow,  

DLR